Погода в Хоровце

Украина / Хмельницкая область     50°22′48″N   27°07′49″E
темп.,
°C
ветер,
м/с
пор.,
м/с
влажн.,
%
обл.,
%
осадки,
мм/ч
давл.,
гПа
погр.,
м
5 августа, чт
чт500:00+15зюз2293100 0.0 101517
03:00+16ю1188100 0.0 101411
06:00+15ю1188100 0.0 101311
09:00+19вюв2274100 0.0 1012232
12:00+24вюв33585 0.0 1011880
15:00+27ююв454748 0.1 10101719
18:00+27юв454998 0.0 10071322
21:00+21вюв4975100 0.1 1005165
6 августа, пт
пт600:00+18юв61394100 16.4 1003444
03:00+18ююв5119438 16.5 1003377
06:00+17ю4119614 0.0 1002338
09:00+20юз610805 0.1 1002680
12:00+23зюз576017 0.0 10031263
15:00+23зюз566092 0.0 10031346
18:00+22з676490 0.0 10041033
21:00+17з488599 0.0 1005261
7 августа, сб
сб700:00+15зюз379555 0.0 1007209
03:00+15зсз588680 0.0 1008551
06:00+11зюз38978 0.0 1010190
09:00+16з58770 0.0 1011568
12:00+21з57535 0.0 10111404
15:00+24з57462 0.0 10111966
18:00+22сз2461100 0.0 1012149
21:00+18зюз33762 0.0 101336
8 августа, вс
вс800:00+17юз338316 0.0 101424
03:00+15юз22895 0.0 101512
06:00+15ююз228899 0.0 101526
09:00+21ю35665 0.0 1015296
12:00+26ю455027 0.0 10151152
15:00+28ю56415 0.0 10151542
18:00+27ю46508 0.0 10151039
21:00+21ююв48719 0.0 1015113
9 августа, пн
пн900:00+19ююв497637 0.0 1016137
03:00+18ююв49767 0.0 1016150
06:00+17ю4117444 0.0 1016197
09:00+22юв4366100 0.0 1015163
12:00+24ююз2363100 0.1 1017449
15:00+26зсз435897 0.1 10171208
18:00+26зсз446141 0.0 10171153
21:00+21сз6107730 0.0 1019406